Orbital Elements at Epoch 2459200.5 (2020-Dec-17.0) TDB
Reference: JPL 24 (heliocentric ecliptic J2000)
Element | Value | Uncertainty (1-sigma) | Units |
e | .2391077573769901 | 4.1127e-08 | |
a | 2.469980224407359 | 1.15e-08 | au |
q | 1.8793887921838 | 1.0408e-07 | au |
i | 8.442847145910022 | 4.1228e-06 | deg |
node | 191.6686695298679 | 3.0626e-05 | deg |
peri | 117.4700238805679 | 3.2302e-05 | deg |
M | 210.0510281565341 | 1.2559e-05 | deg |
tp | 2459791.081219946359 (2022-Jul-30.58121995) | 5.172e-05 | TDB |
period | 1417.877272293907 3.88 | 9.9024e-06 2.711e-08 | d yr |
n | .2539006774666579 | 1.7732e-09 | deg/d |
Q | 3.060571656630917 | 1.425e-08 | au |
|
| | Orbit Determination Parameters
Additional Information
|